Location: Castro Valley
(37.6941°N, 122.0863°W)
Time: 17:20:48
(UTC+00:00)

IRS-1D - Pass Details

Date: 03 August 2024
Orbit: 738 x 813 km, 98.8° (Epoch: 07 September)

Event Time Altitude Azimuth Distance (km) Brightness Sun altitude
Rises 12:27:56 0° 6° (N) 3,194 7.3 -9.0°
Reaches altitude 10° 12:30:16 10° 1° (N) 2,273 6.4 -8.6°
Maximum altitude 12:35:04 48° 288° (WNW) 979 3.8 -7.8°
Drops below altitude 10° 12:39:55 10° 215° (SW) 2,300 5.4 -7.0°
Enters shadow 12:41:26 - 211° (SSW) 2,891 6.0 -6.7°
